Regional Weather Roundup
Issued by NWS New Orleans/Baton Rouge, LA

Home | Current Version | Previous Version | Text Only | Print | Product List | Glossary On
Versions: 1 2 3 4 5 6 7 8 9 10 11 12 13 14 15 16 17 18 19 20 21 22 23 24 25 26 27 28 29 30 31 32 33 34 35 36 37 38 39 40 41 42 43 44 45 46 47 48 49 50
346
ASUS44 KLIX 241810
RWRLIX
NEW ORLEANS REGIONAL WEATHER ROUNDUP
NATIONAL WEATHER SERVICE NEW ORLEANS LA
100 PM CDT SUN JUL 24 2016

NOTE: "FAIR" INDICATES FEW OR NO CLOUDS BELOW 12,000 FEET WITH NO
      SIGNIFICANT WEATHER AND/OR OBSTRUCTIONS TO VISIBILITY.
      SKY/WX - SKY CONDITION AND SIGNIFICANT WEATHER.
      TMP - AIR TEMPERATURE.     DP    - DEWPOINT TEMPERATURE.
      RH  - RELATIVE HUMIDITY.   PRES  - PRESSURE.
      HI  - HEAT INDEX.          WCI   - WIND CHILL INDEX.

*  THESE STATIONS ARE NOT NWS OR FAA STATIONS AND ARE NOT UNDER
   NWS QUALITY CONTROL.

LAZ038-040-048-061>063-065>067-069-241900-
SOUTHEAST LOUISIANA

CITY           SKY/WX    TMP DP  RH WIND       PRES   REMARKS
N.O. AUDUBON     N/A     87  77  71 MISG        N/A  HX  99
6HR MIN TEMP:  81; 6HR MAX TEMP:  93;

N.O. INTL ARPT CLOUDY    89  77  67 S6        29.98F HX 101
6HR MIN TEMP:  82; 6HR MAX TEMP:  93;

N.O. LAKEFRONT CLOUDY    85  74  69 E7        30.00F
6HR MIN TEMP:  81; 6HR MAX TEMP:  88; 6HR PCP: TRACE;

N.O. DOWNTOWN*   N/A     86  75  69 VRB6      30.00F HX  95
6HR MIN TEMP:  82; 6HR MAX TEMP:  89; 6HR PCP: TRACE;

RESERVE*         N/A     90  80  72 SE3       29.97F HX 106
6HR MIN TEMP:  78; 6HR MAX TEMP:  91;

SLIDELL        CLOUDY    82  78  88 S5        29.99F
6HR MIN TEMP:  76; 6HR MAX TEMP:  87; 6HR PCP:  0.09;

BATON ROUGE    CLOUDY    90  76  63 N6        29.98F HX 101
6HR MIN TEMP:  77; 6HR MAX TEMP:  90; 6HR PCP:  0.05;

BOOTHVILLE     RAIN      79  76  90 E3        30.01F FOG
6HR MIN TEMP:  80; 6HR MAX TEMP:  87; 6HR PCP: TRACE;

BELLE CHASSE   CLOUDY    81  76  84 SE14      29.99F
6HR MIN TEMP:  77; 6HR MAX TEMP:  89;

BOGALUSA*        N/A     93  74  53 E5        30.00F HX 102
6HR MIN TEMP:  76; 6HR MAX TEMP:  93;

GALLIANO*      TSTM      69  69  98 E5        30.00F
6HR MIN TEMP:  69; 6HR MAX TEMP:  89; 6HR PCP:  0.55;

NEW ROADS*     LGT RAIN  81  74  81 N12       29.99F
6HR MIN TEMP:  76; 6HR MAX TEMP:  89;

GONZALES*        N/A     89  77  67 NW7       29.96F HX 101
6HR MIN TEMP:  75; 6HR MAX TEMP:  89; 6HR PCP:  0.01;

HAMMOND*       CLOUDY    90  72  55 CALM      29.97F HX  96
HOUMA*         LGT RAIN  79  75  89 CALM      30.00S
PORT FOURCHON* PTCLDY    79  73  83 S6        29.99F HAZE

$$

MSZ070-080>082-241900-
SOUTHERN MISSISSIPPI

CITY           SKY/WX    TMP DP  RH WIND       PRES   REMARKS
MCCOMB         PTSUNNY   88  74  63 W7        30.00F HX  96
6HR MIN TEMP:  75; 6HR MAX TEMP:  89;

GULFPORT       CLOUDY    89  77  67 SE13      29.98F HX 101
6HR MIN TEMP:  77; 6HR MAX TEMP:  89; 6HR PCP:  0.60;

BILOXI         CLOUDY    88  77  70 VRB6      29.99F THUNDER HX 100
6HR MIN TEMP:  79; 6HR MAX TEMP:  89;

PASCAGOULA     LGT RAIN  78  78 100 SW3       30.00F FOG
6HR MIN TEMP:  76; 6HR MAX TEMP:  90; 6HR PCP:  0.46;


$$

COASTAL OBSERVATIONS
LAKE AND NEARSHORE STATIONS

STATION/POSITION TIME  TEMP    WIND        PRES    WAVE
                       AIR SEA DIR/SP/G            HT/PER
                 (UTC) (F)     (DEG/KT/KT) (MB)    (FT/S)
PASCAGOULA       1700   85     210/  5/  7 1015.7
WAVELAND YACHT   1700   82 86  350/  4/  5 1015.8
GRAND ISLE       1700   84 89  290/  3/  5 1016.7
SOUTHWEST PASS   1700          310/ 12/ 15   N/A
NEW CANAL        1700   85 88   60/  6/  9 1015.4
SHELL BEACH      1700   79 88   20/  4/  5 1016.4

OFFSHORE STATIONS

STATION/POSITION TIME  TEMP    WIND        PRES    WAVE
                       AIR SEA DIR/SP/G            HT/PER
                 (UTC) (F)     (DEG/KT/KT) (MB)    (FT/S)
64 S DAUPHIN ISL 1700   85 88  260/  2/  4 1015.8

$$





USA.gov is the U.S. government's official web portal to all federal, state and local government web resources and services.